Location: Zagreb
(45.8000°N, 16.0000°E)
Time: 15:43:39
(UTC+02:00)

Vanguard 1 - Pass Details

Date: 11 August 2022
Orbit: 649 x 3832 km, 34.2° (Epoch: 25 September)

Event Time Altitude Azimuth Distance (km) Brightness Sun altitude
Rises 10:45:59 0° 279° (W) 7,612 14.2 48.3°
Reaches altitude 10° 10:51:24 10° 273° (W) 6,793 14.1 49.1°
Maximum altitude 11:11:36 40° 215° (SW) 4,712 14.1 51.8°
Drops below altitude 10° 11:28:34 10° 154° (SSE) 5,724 14.7 53.8°
Sets 11:32:42 0° 146° (SSE) 6,360 14.8 54.2°
